This is the latest recevied weather packets stored in our database for station/object DK4DAX-2. If no packets are shown the sender has not sent any weather packets the latest 10 day(s).
| Time | Temp. | Humidity | Pressure | Rain* | Wind** | Luminosity | Snow |
|---|---|---|---|---|---|---|---|
| 1788139804 | 69° F | 60% | 756.1 mmHg | 0 in | - | - | - |
| 1788138903 | 69° F | 60% | 756.1 mmHg | 0 in | - | - | - |
| 1788138003 | 69° F | 60% | 755.9 mmHg | 0 in | - | - | - |
| 1788137104 | 67° F | 64% | 756.3 mmHg | 0 in | - | - | - |
| 1788136203 | 67° F | 65% | 756.2 mmHg | 0 in | - | - | - |
| 1788135303 | 67° F | 65% | 756.6 mmHg | 0 in | - | - | - |
| 1788134404 | 67° F | 66% | 756.4 mmHg | 0 in | - | - | - |
| 1788133503 | 67° F | 65% | 756.4 mmHg | 0 in | - | - | - |
| 1788132603 | 67° F | 65% | 756.5 mmHg | 0 in | - | - | - |
| 1788131704 | 67° F | 64% | 756.5 mmHg | 0 in | - | - | - |
| 1788130804 | 67° F | 65% | 756.4 mmHg | 0 in | - | - | - |
| 1788129903 | 67° F | 64% | 756.4 mmHg | 0 in | - | - | - |
| 1788129003 | 67° F | 63% | 756.6 mmHg | 0 in | - | - | - |
| 1788128104 | 68° F | 62% | 756.6 mmHg | 0 in | - | - | - |
| 1788127204 | 68° F | 62% | 756.9 mmHg | 0 in | - | - | - |
| 1788126304 | 68° F | 60% | 756.8 mmHg | 0 in | - | - | - |
| 1788125403 | 69° F | 59% | 756.9 mmHg | 0 in | - | - | - |
| 1788124503 | 69° F | 58% | 756.9 mmHg | 0 in | - | - | - |
| 1788123604 | 70° F | 55% | 756.9 mmHg | 0 in | - | - | - |
| 1788122703 | 70° F | 53% | 756.9 mmHg | 0 in | - | - | - |
| 1788121803 | 71° F | 52% | 757.1 mmHg | 0 in | - | - | - |
| 1788120903 | 71° F | 51% | 757 mmHg | 0 in | - | - | - |
| 1788120004 | 71° F | 51% | 757 mmHg | 0 in | - | - | - |
| 1788119103 | 71° F | 51% | 757.1 mmHg | 0 in | - | - | - |
| 1788118203 | 71° F | 51% | 757.1 mmHg | 0 in | - | - | - |
* Rain latest hour (hover to see other rain measurements)
** Current wind speed in m/s (hover to see current wind gust speed)